Location: Newark
(50.0306°N, 2.3272°E)
Time: 22:32:48
(UTC+00:00)

Transit 2A Rocket - Pass Details

Date: 09 December 2019
Orbit: 593 x 910 km, 66.7° (Epoch: 24 January)

Event Time Altitude Azimuth Distance (km) Brightness Sun altitude
Rises 02:17:46 0° 312° (NW) 2,876 - -49.3°
Reaches altitude 10° 02:20:24 10° 297° (WNW) 1,997 - -49.0°
Maximum altitude 02:23:46 21° 248° (WSW) 1,445 - -48.5°
Drops below altitude 10° 02:27:16 10° 199° (SSW) 2,097 - -48.0°
Sets 02:30:07 0° 184° (S) 3,066 - -47.6°
